{"data":{"norad_id":62278,"intl_designator":"2024-237M","name":"STARLINK-11487 [DTC]","alt_names":[],"object_type":"PAYLOAD","status":"ACTIVE","operator":null,"country":"US","launch_date":"2024-12-08","launch_site_code":"AFETR","launch_vehicle":null,"mission":null,"orbit_class":"UNKNOWN","rcs_meters":null,"size_class":null,"mass_kg":null,"dimensions":null,"purposes":["comms"],"wikipedia_slug":null,"has_3d_model":false,"image_url":null,"decayed_at":null,"tle_current":{"epoch":"2026-05-24T20:12:47.420928Z","epoch_age_seconds":82611,"freshness":"FRESH","line1":"1 62278U 24237M   26144.84221552  .00175863  00000+0  13403-2 0  9991","line2":"2 62278  43.0009 318.0749 0003091 264.7319  95.3196 15.70925608 85021","mean_motion":15.70925608,"eccentricity":0.0003091,"inclination_deg":43.0009,"raan_deg":318.0749,"arg_perigee_deg":264.7319,"mean_anomaly_deg":95.3196,"bstar":0.0013403,"rev_number":8502,"period_min":91.665702861214,"perigee_km":354.16878985263,"apogee_km":358.33198813651,"semimajor_km":6734.3873889946,"source":"CELESTRAK","updated_at":"2026-05-25T13:38:19.644122Z"}}}